Salamanca, Spain

10:55 AM CEST on August 21, 2017 (GMT +0200)
Matacan

Weather History for LESA - December, 2013

Change the Weather History Date:

Monday, December 16, 2013

  Actual Average Record
Temperature  
Mean Temperature 40 °F -  
Max Temperature 55 °F - - ()
Min Temperature 24 °F - - ()
Degree Days  
Heating Degree Days 26    
Moisture  
Dew Point 31 °F    
Average Humidity 89    
Maximum Humidity 100    
Minimum Humidity 39    
Precipitation  
Precipitation 0.00 in 0.05 in - ()
Sea Level Pressure  
Sea Level Pressure 30.35 in    
Wind  
Wind Speed 1 mph ()    
Max Wind Speed 6 mph    
Max Gust Speed -    
Visibility 1.7 miles    
Events Fog    
T = Trace of Precipitation, MM = Missing Value Source: Averaged Metar Reports

Daily Weather History Graph

Daily Weather History Graph

Search for Another Location

Airport or City:

Trip Planner

Search our weather history database for the weather conditions in past years. The results will help you decide how hot, cold, wet, or windy it might be!

Date:

Astronomy

Dec. 16, 2013 Rise Set
Actual Time 8:40 AM CET 5:55 PM CET
Civil Twilight 8:09 AM CET 6:26 PM CET
Nautical Twilight 7:34 AM CET 7:00 PM CET
Astronomical Twilight 7:01 AM CET 7:34 PM CET
Moon 5:34 PM CET (12/16) 7:36 AM CET (12/16)
Length of Visible Light 10h 16m
Length of Day
9h 14m
Waxing Gibbous, 99% of the Moon is Illuminated
Dec 16
Waxing Gibbous
Dec 17
Full
Dec 25
Last Quarter
Jan 1
New
Jan 8
First Quarter

Hourly Weather History & Observations

Time (CET) Temp. Windchill Dew Point Humidity Pressure Visibility Wind Dir Wind Speed Gust Speed Precip Events Conditions
12:00 AM 31 °F - 30 °F 96%  in - SE 3.5 mph - -  
12:00 AM 30.2 °F - 30.2 °F 100% 30.45 in 0.2 mi Variable 2.3 mph - N/A Fog Light Freezing Fog
12:30 AM 30.2 °F - 30.2 °F 100% 30.45 in 0.2 mi Variable 2.3 mph - N/A Fog Light Freezing Fog
1:00 AM 30 °F - 30 °F 100%  in 0 mi ESE 2.3 mph - - Fog Heavy Fog
1:00 AM 30.2 °F - 30.2 °F 100% 30.45 in 0.2 mi Variable 1.2 mph - N/A Fog Light Freezing Fog
1:30 AM 30.2 °F - 30.2 °F 100% 30.42 in 0.2 mi Variable 2.3 mph - N/A Fog Light Freezing Fog
2:00 AM 29 °F - 29 °F 100%  in - ESE 4.6 mph - -  
2:00 AM 30.2 °F 26.7 °F 30.2 °F 100% 30.42 in 0.2 mi ESE 3.5 mph - N/A Fog Light Freezing Fog
2:30 AM 28.4 °F - 28.4 °F 100% 30.42 in 0.2 mi Variable 1.2 mph - N/A Fog Light Freezing Fog
3:00 AM 29 °F - 29 °F 99%  in - NE 1.2 mph - -  
3:00 AM 28.4 °F - 28.4 °F 100% 30.42 in 0.2 mi Variable 1.2 mph - N/A Fog Light Freezing Fog
3:30 AM 28.4 °F 24.6 °F 28.4 °F 100% 30.39 in 0.2 mi East 3.5 mph - N/A Fog Light Freezing Fog
4:00 AM 28.4 °F - 28.4 °F 100% 30.39 in 0.2 mi Variable 1.2 mph - N/A Fog Light Freezing Fog
4:30 AM 28.4 °F - 28.4 °F 100% 30.39 in 0.2 mi Calm Calm - N/A Fog Light Freezing Fog
5:00 AM 28 °F - 28 °F 99%  in - ESE 1.2 mph - -  
5:00 AM 28.4 °F - 28.4 °F 100% 30.39 in 0.2 mi Variable 1.2 mph - N/A Fog Light Freezing Fog
5:30 AM 28.4 °F - 28.4 °F 100% 30.39 in 0.2 mi Variable 1.2 mph - N/A Fog Light Freezing Fog
6:00 AM 27 °F - 27 °F 100%  in - ESE 2.3 mph - -  
6:00 AM 26.6 °F - 26.6 °F 100% 30.39 in 0.2 mi Variable 1.2 mph - N/A Fog Light Freezing Fog
6:30 AM 26.6 °F - 26.6 °F 100% 30.39 in 0.2 mi Variable 2.3 mph - N/A Fog Light Freezing Fog
7:00 AM 26 °F - 26 °F 99%  in 0 mi SE 2.3 mph - - Fog Heavy Fog
7:00 AM 26.6 °F - 26.6 °F 100% 30.39 in 0.2 mi Variable 1.2 mph - N/A Fog Light Freezing Fog
7:30 AM 26.6 °F - 26.6 °F 100% 30.39 in 0.2 mi Variable 2.3 mph - N/A Fog Light Freezing Fog
8:00 AM 26 °F - 25 °F 96%  in - Calm Calm - -  
8:00 AM 26.6 °F - 24.8 °F 93% 30.39 in 0.2 mi Calm Calm - N/A Fog Light Freezing Fog
8:30 AM 26.6 °F - 24.8 °F 93% 30.39 in 0.2 mi Variable 1.2 mph - N/A Fog Light Freezing Fog
9:00 AM 25 °F - 25 °F 98%  in - Calm Calm - -  
9:00 AM 24.8 °F - 24.8 °F 100% 30.39 in 0.2 mi Calm Calm - N/A Fog Light Freezing Fog
9:30 AM 26.6 °F - 26.6 °F 100% 30.39 in 1.6 mi Calm Calm - N/A Fog Patches of Fog
10:00 AM 28.4 °F - 28.4 °F 100% 30.39 in 1.9 mi Calm Calm - N/A Fog Fog
10:30 AM 30.2 °F - 30.2 °F 100% 30.39 in 2.5 mi Calm Calm - N/A   Partly Cloudy
10:50 AM 30.2 °F - 30.2 °F 100% 30.39 in 4.3 mi Calm Calm - N/A   Unknown
11:00 AM 33 °F - 31 °F 91%  in - Calm Calm - -  
11:00 AM 32.0 °F - 32.0 °F 100% 30.39 in 5.6 mi Calm Calm - N/A   Unknown
11:30 AM 33.8 °F - 33.8 °F 100% 30.39 in - Variable 1.2 mph - N/A   Clear
12:00 PM 41 °F - 35 °F 71%  in - Calm Calm - -  
12:00 PM 39.2 °F - 39.2 °F 100% 30.36 in - Calm Calm - N/A   Clear
12:30 PM 41.0 °F - 41.0 °F 100% 30.36 in - Calm Calm - N/A   Clear
1:00 PM 48 °F - 38 °F 57%  in 11 mi Calm Calm - -   Partly Cloudy
1:00 PM 46.4 °F - 41.0 °F 81% 30.33 in - Calm Calm - N/A   Clear
1:30 PM 48.2 °F - 39.2 °F 71% 30.33 in - Variable 2.3 mph - N/A   Clear
2:00 PM 51 °F - 38 °F 51%  in - Calm Calm - -  
2:00 PM 51.8 °F - 41.0 °F 67% 30.30 in - Calm Calm - N/A   Clear
2:30 PM 51.8 °F - 39.2 °F 62% 30.30 in - Calm Calm - N/A   Clear
3:00 PM 55 °F - 37 °F 39%  in - Calm Calm - -  
3:00 PM 53.6 °F - 37.4 °F 54% 30.27 in - Calm Calm - N/A   Clear
3:30 PM 55.4 °F - 37.4 °F 51% 30.27 in - Calm Calm - N/A   Clear
4:00 PM 53.6 °F - 42.8 °F 67% 30.27 in - North 5.8 mph - N/A   Clear
4:30 PM 51.8 °F - 41.0 °F 67% 30.27 in - North 3.5 mph - N/A   Clear
5:00 PM 49 °F - 40 °F 64%  in - NE 4.6 mph - -  
5:00 PM 50.0 °F - 41.0 °F 71% 30.27 in - NNE 3.5 mph - N/A   Clear
5:30 PM 48.2 °F - 39.2 °F 71% 30.27 in - Variable 1.2 mph - N/A   Clear
6:00 PM 42 °F - 36 °F 70%  in - ESE 2.3 mph - -  
6:00 PM 41.0 °F - 35.6 °F 81% 30.27 in - Variable 2.3 mph - N/A   Clear
6:30 PM 39.2 °F - 35.6 °F 87% 30.27 in - Calm Calm - N/A   Clear
7:00 PM 36 °F - 33 °F 84%  in 7 mi East 2.3 mph - -   Clear
7:00 PM 37.4 °F - 33.8 °F 87% 30.27 in - Variable 1.2 mph - N/A   Clear
7:30 PM 35.6 °F 31.7 °F 33.8 °F 93% 30.27 in - East 4.6 mph - N/A   Clear
8:00 PM 32 °F - 31 °F 92%  in - ENE 1.2 mph - -  
8:00 PM 32.0 °F - 32.0 °F 100% 30.30 in - Calm Calm - N/A   Clear
8:30 PM 32.0 °F - 30.2 °F 93% 30.30 in - Calm Calm - N/A   Clear
9:00 PM 29 °F - 28 °F 93%  in - Calm Calm - -  
9:00 PM 30.2 °F - 28.4 °F 93% 30.30 in - Calm Calm - N/A   Clear
9:30 PM 28.4 °F 23.3 °F 28.4 °F 100% 30.30 in - SE 4.6 mph - N/A   Clear
10:00 PM 27 °F - 26 °F 94%  in 6 mi Calm Calm - -   Clear
10:00 PM 28.4 °F - 26.6 °F 93% 30.30 in - Calm Calm - N/A   Clear
10:30 PM 26.6 °F - 26.6 °F 100% 30.30 in - Calm Calm - N/A   Clear
11:00 PM 26 °F - 26 °F 97%  in - Calm Calm - -  
11:00 PM 26.6 °F - 26.6 °F 100% 30.30 in 5.0 mi Calm Calm - N/A   Unknown
11:30 PM 28.4 °F - 26.6 °F 93% 30.30 in 5.0 mi Calm Calm - N/A   Unknown